Simultaneous Nadir Overpasses (SNOs) Predictions

Prediction of SNOs between NPP and TERRA Satellite Orbit:

Table of predicted SNOs for the next 14.0 days since TLE Epoch: 11/9/2024
Index Date (NPP) Time (NPP) Lat,Lon (NPP) SZA (NPP ) Date (TERRA) Time (TERRA) Lat,Lon (TERRA) SZA (TERRA ) Distance(km) Time Diff (sec)
1 11/09/2024 04:25:54 72.88, 104.99 89.82 11/09/2024 04:26:26 72.89, 104.99 89.83 1.54 32
2 11/09/2024 05:16:36 -72.80, -87.53 90.25 11/09/2024 05:15:49 -72.79, -87.53 90.26 0.68 47
3 11/11/2024 15:38:17 72.88, -63.12 90.51 11/11/2024 15:38:42 72.88, -63.14 90.51 0.74 25
4 11/11/2024 16:28:59 -72.80, 104.37 89.57 11/11/2024 16:28:05 -72.78, 104.34 89.58 2.26 54
5 11/14/2024 02:50:41 72.91, 128.73 91.19 11/14/2024 02:50:57 72.89, 128.78 91.18 2.13 16
6 11/14/2024 03:41:22 -72.78, -63.67 88.94 11/14/2024 03:40:20 -72.79, -63.76 88.92 3.12 62
7 11/16/2024 13:12:32 -73.61, 151.76 87.45 11/16/2024 13:13:39 -73.53, 154.27 87.60 79.53 67
8 11/16/2024 14:03:04 72.90, -39.36 91.81 11/16/2024 14:03:10 72.92, -39.28 91.82 2.83 6
9 11/16/2024 14:53:46 -72.82, 128.14 88.27 11/16/2024 14:52:33 -72.81, 128.18 88.28 2.16 73
10 11/19/2024 00:24:47 -73.23, -15.46 87.27 11/19/2024 00:25:58 -73.14, -14.60 87.38 29.65 71
11 11/19/2024 01:15:26 72.87, 152.62 92.37 11/19/2024 01:15:22 72.90, 152.60 92.40 2.81 4
12 11/19/2024 02:06:01 -72.43, -39.16 88.08 11/19/2024 02:04:51 -72.47, -40.53 88.01 46.16 70
13 11/21/2024 11:37:04 -72.97, 177.02 86.99 11/21/2024 11:38:11 -72.98, 177.01 86.98 1.35 67
14 11/21/2024 12:27:49 72.92, -15.56 92.97 11/21/2024 12:27:32 72.90, -15.48 92.95 3.33 17



Historial Predications of SNOs between NPP and TERRA
